| time (UTC) | temp C | wind direction | speed KPH | gust KPH | rain 1hr cm | rain 24hr cm | rain mn cm | humidity % | barometer mb |
| 20260508012709 | 11 | 0.0 | 0.0 | 0.00 | 0.00 | 0.00 | 89 | 1017.0 | |
| 20260508010209 | 11 | 0.0 | 0.0 | 0.00 | 0.00 | 0.00 | 88 | 1017.1 | |
| 20260508003710 | 11 | 0.0 | 0.0 | 0.00 | 0.00 | 0.00 | 86 | 1017.1 | |
| 20260508001209 | 11 | 0.0 | 0.0 | 0.00 | 0.00 | 0.00 | 86 | 1017.2 | |
| 20260507234710 | 12 | 0.0 | 0.0 | 0.00 | 0.00 | 0.00 | 85 | 1017.1 | |
| 20260507232210 | 12 | 0.0 | 0.0 | 0.00 | 0.00 | 0.00 | 84 | 1017.1 | |
| 20260507225709 | 12 | 0.0 | 0.0 | 0.00 | 0.00 | 0.00 | 83 | 1017.3 | |
| 20260507223210 | 12 | 0.0 | 0.0 | 0.00 | 0.00 | 0.00 | 83 | 1017.2 | |
| 20260507220709 | 12 | 0.0 | 0.0 | 0.00 | 0.00 | 0.00 | 82 | 1017.0 | |
| 20260507214209 | 13 | 0.0 | 0.0 | 0.00 | 0.00 | 0.00 | 80 | 1016.7 | |
| 20260507211709 | 13 | 0.0 | 0.0 | 0.00 | 0.00 | 0.00 | 80 | 1016.5 | |
| 20260507205210 | 13 | 0.0 | 0.0 | 0.00 | 0.00 | 0.00 | 81 | 1016.3 | |
| 20260507202710 | 14 | 0.0 | 0.0 | 0.00 | 0.00 | 0.00 | 81 | 1016.3 | |
| 20260507200209 | 14 | 0.0 | 0.0 | 0.00 | 0.00 | 0.00 | 79 | 1016.1 | |
| 20260507193710 | 15 | 0.0 | 0.0 | 0.00 | 0.00 | 0.00 | 77 | 1015.2 | |
| 20260507191209 | 15 | 0.0 | 0.0 | 0.00 | 0.00 | 0.00 | 73 | 1014.8 | |
| 20260507184710 | 16 | 0.0 | 0.0 | 0.00 | 0.00 | 0.00 | 71 | 1014.6 | |
| 20260507182210 | 16 | 0.0 | 0.0 | 0.00 | 0.00 | 0.00 | 69 | 1014.4 | |
| 20260507175709 | 16 | 0.0 | 0.0 | 0.00 | 0.00 | 0.00 | 68 | 1014.2 | |
| 20260507173211 | 16 | 0.0 | 0.0 | 0.00 | 0.00 | 0.00 | 69 | 1014.0 | |
| 20260507170710 | 17 | 0.0 | 0.0 | 0.00 | 0.00 | 0.00 | 65 | 1014.0 | |
| 20260507164210 | 17 | 0.0 | 0.0 | 0.00 | 0.00 | 0.00 | 65 | 1013.7 | |
| 20260507161710 | 17 | 0.0 | 0.0 | 0.00 | 0.00 | 0.00 | 62 | 1013.7 | |
| 20260507155209 | 18 | 0.0 | 0.0 | 0.00 | 0.00 | 0.00 | 54 | 1013.2 | |
| 20260507152710 | 18 | 0.0 | 0.0 | 0.00 | 0.00 | 0.00 | 53 | 1013.1 | |
| 20260507150210 | 19 | 0.0 | 0.0 | 0.00 | 0.00 | 0.00 | 52 | 1013.4 | |
| 20260507143710 | 20 | 0.0 | 0.0 | 0.00 | 0.00 | 0.00 | 52 | 1013.3 | |
| 20260507141209 | 19 | 0.0 | 0.0 | 0.00 | 0.00 | 0.00 | 54 | 1013.5 | |
| 20260507134710 | 18 | 0.0 | 0.0 | 0.00 | 0.00 | 0.00 | 55 | 1014.0 | |
| 20260507132209 | 18 | 0.0 | 0.0 | 0.00 | 0.00 | 0.00 | 53 | 1014.2 | |
| 20260507125710 | 18 | 0.0 | 0.0 | 0.00 | 0.00 | 0.00 | 54 | 1014.1 | |
| 20260507123210 | 19 | 0.0 | 0.0 | 0.00 | 0.00 | 0.00 | 54 | 1014.2 | |
| 20260507120710 | 18 | 0.0 | 0.0 | 0.00 | 0.00 | 0.00 | 58 | 1014.4 | |
| 20260507114210 | 17 | 0.0 | 0.0 | 0.00 | 0.00 | 0.00 | 64 | 1015.1 | |
| 20260507111709 | 16 | 0.0 | 0.0 | 0.00 | 0.00 | 0.00 | 62 | 1015.5 | |
| 20260507105210 | 16 | 0.0 | 0.0 | 0.00 | 0.00 | 0.00 | 64 | 1015.8 | |
| 20260507102710 | 15 | 0.0 | 0.0 | 0.00 | 0.00 | 0.00 | 70 | 1016.1 | |
| 20260507100210 | 15 | 0.0 | 0.0 | 0.00 | 0.00 | 0.00 | 72 | 1016.3 | |
| 20260507093710 | 15 | 0.0 | 0.0 | 0.00 | 0.00 | 0.00 | 74 | 1016.2 | |
| 20260507091210 | 14 | 0.0 | 0.0 | 0.00 | 0.00 | 0.00 | 78 | 1016.1 | |
| 20260507084710 | 13 | 0.0 | 0.0 | 0.00 | 0.00 | 0.00 | 81 | 1016.3 | |
| 20260507082210 | 12 | 0.0 | 0.0 | 0.00 | 0.00 | 0.00 | 81 | 1016.3 | |
| 20260507075711 | 12 | 0.0 | 0.0 | 0.00 | 0.00 | 0.00 | 82 | 1016.2 | |
| 20260507073210 | 12 | 0.0 | 0.0 | 0.00 | 0.00 | 0.00 | 81 | 1016.2 | |
| 20260507070710 | 12 | 0.0 | 0.0 | 0.00 | 0.00 | 0.00 | 83 | 1016.4 | |
| 20260507064210 | 11 | 0.0 | 0.0 | 0.00 | 0.00 | 0.00 | 87 | 1016.2 | |
| 20260507061710 | 11 | 0.0 | 0.0 | 0.00 | 0.00 | 0.00 | 88 | 1016.2 | |
| 20260507055210 | 11 | 0.0 | 0.0 | 0.00 | 0.00 | 0.00 | 89 | 1016.0 | |
| 20260507052711 | 11 | 0.0 | 0.0 | 0.00 | 0.00 | 0.00 | 90 | 1015.6 | |
| 20260507050210 | 10 | 0.0 | 0.0 | 0.00 | 0.00 | 0.00 | 90 | 1015.3 | |
| 20260507043710 | 10 | 0.0 | 0.0 | 0.00 | 0.00 | 0.00 | 90 | 1015.1 | |
| 20260507041210 | 10 | 0.0 | 0.0 | 0.00 | 0.00 | 0.00 | 91 | 1014.8 | |
| 20260507034710 | 11 | 0.0 | 0.0 | 0.00 | 0.00 | 0.00 | 94 | 1014.8 | |
| 20260507032211 | 10 | 0.0 | 0.0 | 0.00 | 0.00 | 0.00 | 96 | 1014.6 | |
| 20260507025711 | 11 | 0.0 | 0.0 | 0.00 | 0.00 | 0.00 | 96 | 1014.6 | |
| 20260507023211 | 11 | 0.0 | 0.0 | 0.00 | 0.00 | 0.00 | 95 | 1014.5 | |
| 20260507020710 | 11 | 0.0 | 0.0 | 0.00 | 0.00 | 0.00 | 93 | 1014.3 | |
| 20260507014211 | 11 | 0.0 | 0.0 | 0.00 | 0.00 | 0.00 | 92 | 1014.2 |